Location: ????????
(55.7667°N, 37.4833°E)
Time: 09:22:17
(UTC+00:00)

ALOS - Pass Details

Date: 19 May 2025
Orbit: 663 x 667 km, 98.1° (Epoch: 12 June)

Event Time Altitude Azimuth Distance (km) Brightness Sun altitude
Rises 23:43:25 0° 20° (NNE) 3,019 7.5 -8.9°
Reaches altitude 10° 23:45:49 10° 29° (NNE) 2,100 6.5 -8.7°
Maximum altitude 23:50:03 36° 96° (E) 1,058 3.5 -8.4°
Drops below altitude 10° 23:54:15 10° 163° (SSE) 2,084 4.4 -8.1°
Enters shadow 23:56:23 - 172° (S) 2,902 5.1 -7.9°
